GW1353 Weather Reports


time (UTC)temp
F
wind
direction
speed
knots
gust
knots
rain 1hr
in
rain 24hr
in
rain mn
in
humidity
%
barometer
mb
20260507133515 65 158 0.0 2.6 0.00 0.00 0.00 37 1026.8
20260507121752 62 196 2.6 5.2 0.00 0.00 0.00 40 1026.1
20260507120054 62 160 0.0 4.3 0.00 0.00 0.00 40 1026.2
20260507114553 61 157 0.9 5.2 0.00 0.00 0.00 40 1026.0
20260507113053 61 157 0.9 5.2 0.00 0.00 0.00 40 1026.2
20260507111549 61 133 0.9 4.3 0.00 0.00 0.00 39 1026.1
20260507110235 62 198 0.0 0.0 0.00 0.00 0.00 39 1026.2
20260507104552 62 0 0.0 0.9 0.00 0.00 0.00 38 1026.0
20260507103047 62 0 0.0 1.7 0.00 0.00 0.00 38 1025.9
20260507101553 62 209 1.7 3.5 0.00 0.00 0.00 38 1026.2
20260507100115 62 0 0.0 3.5 0.00 0.00 0.00 38 1025.8
20260507094551 63 273 1.7 7.0 0.00 0.00 0.00 37 1025.7
20260507093055 63 253 2.6 6.1 0.00 0.00 0.00 37 1025.5
20260507091548 63 256 1.7 5.2 0.00 0.00 0.00 37 1025.4
20260507090049 63 291 1.7 7.8 0.00 0.00 0.00 37 1025.6
20260507084549 63 264 2.6 6.1 0.00 0.00 0.00 37 1025.5
20260507083050 63 260 2.6 6.1 0.00 0.00 0.00 37 1025.7
20260507081550 63 257 2.6 7.0 0.00 0.00 0.00 36 1025.9
20260507080111 63 262 2.6 6.1 0.00 0.00 0.00 36 1026.1
20260507074547 64 263 2.6 7.0 0.00 0.00 0.00 36 1026.3
20260507073050 64 282 3.5 7.0 0.00 0.00 0.00 35 1026.4
20260507071607 64 241 3.5 7.8 0.00 0.00 0.00 35 1026.6
20260507070057 64 252 2.6 7.8 0.00 0.00 0.00 35 1026.5
20260507064552 64 246 3.5 8.7 0.00 0.00 0.00 35 1026.6
20260507063056 65 360 4.3 8.7 0.00 0.00 0.00 34 1026.8
20260507061556 65 360 2.6 7.0 0.00 0.00 0.00 34 1026.8
20260507060051 65 360 3.5 7.8 0.00 0.00 0.00 34 1026.9
20260507054550 65 360 3.5 7.8 0.00 0.00 0.00 33 1026.9
20260507053117 66 360 3.5 7.0 0.00 0.00 0.00 32 1026.9
20260507051601 66 360 0.9 5.2 0.00 0.00 0.00 31 1026.9
20260507050050 67 360 1.7 4.3 0.00 0.00 0.00 30 1027.1
20260507044555 68 360 1.7 7.0 0.00 0.00 0.00 30 1027.0
20260507043053 68 360 2.6 7.0 0.00 0.00 0.00 29 1027.0
20260507041552 69 360 1.7 10.4 0.00 0.00 0.00 28 1026.9
20260507040054 69 360 2.6 10.4 0.00 0.00 0.00 27 1026.7
20260507034549 69 360 5.2 11.3 0.00 0.00 0.00 26 1026.6
20260507033051 69 360 2.6 7.0 0.00 0.00 0.00 25 1026.5
20260507031556 70 360 2.6 7.0 0.00 0.00 0.00 25 1026.3
20260507030051 70 360 3.5 7.8 0.00 0.00 0.00 24 1026.2
20260507024601 71 360 3.5 10.4 0.00 0.00 0.00 24 1025.9
20260507023051 71 360 4.3 11.3 0.00 0.00 0.00 24 1025.7
20260507021551 72 360 4.3 9.6 0.00 0.00 0.00 23 1025.5
20260507020049 73 360 6.1 10.4 0.00 0.00 0.00 22 1025.3
20260507014601 74 360 4.3 9.6 0.00 0.00 0.00 21 1025.2
20260507013051 75 360 4.3 13.0 0.00 0.00 0.00 21 1025.0
20260507011549 75 360 6.1 16.5 0.00 0.00 0.00 20 1024.7
20260507004601 77 360 8.7 14.8 0.00 0.00 0.00 19 1024.4
20260507003056 78 360 9.6 15.6 0.00 0.00 0.00 18 1024.4
20260507001555 78 360 9.6 18.2 0.00 0.00 0.00 16 1024.2
20260507000054 79 360 10.4 18.2 0.00 0.00 0.00 17 1024.0
20260506234554 79 360 9.6 19.1 0.00 0.00 0.00 16 1023.9
20260506233056 79 206 8.7 18.2 0.00 0.00 0.00 16 1023.9
20260506231553 79 360 10.4 21.7 0.00 0.00 0.00 17 1023.9
20260506230049 80 240 11.3 20.9 0.00 0.00 0.00 16 1023.9
20260506224553 81 217 6.1 16.5 0.00 0.00 0.00 15 1023.8
20260506223052 80 235 11.3 23.5 0.00 0.00 0.00 16 1024.0
20260506221555 80 225 9.6 18.2 0.00 0.00 0.00 15 1023.8
20260506220052 80 242 7.8 18.2 0.00 0.00 0.00 16 1024.0
20260506214602 80 223 8.7 28.7 0.00 0.00 0.00 16 1024.0
20260506213050 80 205 5.2 17.4 0.00 0.00 0.00 16 1024.1
20260506211700 80 252 10.4 23.5 0.00 0.00 0.00 15 1024.3
20260506210051 80 197 7.0 14.8 0.00 0.00 0.00 16 1024.4
20260506204552 80 225 6.1 20.9 0.00 0.00 0.00 16 1024.6
20260506203116 79 239 7.8 15.6 0.00 0.00 0.00 16 1024.7
20260506201552 79 194 9.6 16.5 0.00 0.00 0.00 15 1025.0
20260506200103 79 360 9.6 20.0 0.00 0.00 0.00 16 1025.2
20260506194605 79 205 9.6 19.1 0.00 0.00 0.00 16 1025.5
20260506193056 78 205 7.0 14.8 0.00 0.00 0.00 16 1025.9
20260506191615 77 360 7.0 19.1 0.00 0.00 0.00 16 1026.2
20260506184552 77 360 6.1 14.8 0.00 0.00 0.00 15 1026.4
20260506183059 76 360 7.8 17.4 0.00 0.00 0.00 16 1026.8
20260506181601 76 360 7.8 18.2 0.00 0.00 0.00 15 1026.8